Stations météo

Publicité
La Rochelle/Ile de Re, France (7316): Température de l'air & dewpoint: 13.03.2019 06:00:00 - 19.03.2019 06:00:00 (CET)La Rochelle/Ile de Re, France (7316): Vitesse du vent & gusts: 13.03.2019 06:00:00 - 19.03.2019 06:00:00 (CET)La Rochelle/Ile de Re, France (7316): Direction du vent: 13.03.2019 06:00:00 - 19.03.2019 06:00:00 (CET)La Rochelle/Ile de Re, France (7316): reduced air pressure: 13.03.2019 06:00:00 - 19.03.2019 06:00:00 (CET)La Rochelle/Ile de Re, France (7316): visibility: 13.03.2019 06:00:00 - 19.03.2019 06:00:00 (CET)La Rochelle/Ile de Re, France (7316): Ensoleillement: 13.03.2019 06:00:00 - 19.03.2019 06:00:00 (CET)La Rochelle/Ile de Re, France (7316): Quantités de précipitations: 13.03.2019 06:00:00 - 19.03.2019 06:00:00 (CET)
Date & Time tt [°C] td [°C] ff [km/h] ff [knt] fx [km/h] fx [knt] dd ppp [hPa] vv [km] sd [min] rr [mm]
19.03.2019 06:00:00 5,8 5,2 10 5 16 9 N 1028,0 11 0 0,0
19.03.2019 05:00:00 6,9 6,2 11 6 17 9 NNE 1027,7 17 0 0,0
19.03.2019 04:00:00 7,0 6,3 10 5 16 9 N 1027,5 19 0 0,0
19.03.2019 03:00:00 6,6 6,0 10 5 18 10 NNE 1027,5 20 0 0,0
19.03.2019 02:00:00 7,3 6,1 14 7 21 11 N 1027,5 38 0 0,0
19.03.2019 01:00:00 6,9 5,7 11 6 19 11 N 1027,3 55 0 0,0
19.03.2019 00:00:00 7,6 6,1 16 9 25 13 N 1027,5 57 0 0,0
18.03.2019 23:00:00 8,0 6,5 18 10 30 16 N 1027,3 26 0 0,2
18.03.2019 22:00:00 8,5 6,1 23 12 33 18 NNW 1027,2 32 0 0,0
18.03.2019 21:00:00 8,8 5,7 20 11 34 18 NNW 1026,8 56 0 0,0
18.03.2019 20:00:00 9,1 5,5 23 13 45 24 NNW 1026,7 60 0 0,2
18.03.2019 19:00:00 9,9 6,4 28 15 42 23 NW 1026,3 19 0 0,0
18.03.2019 18:00:00 10,3 6,6 31 17 41 22 NW 1026,1 55 0 0,0
18.03.2019 17:00:00 10,7 6,6 26 14 38 21 WNW 1026,0 37 0 0,0
18.03.2019 16:00:00 11,0 6,1 27 15 37 20 WNW 1026,4 19 0 0,0
18.03.2019 15:00:00 11,2 7,1 29 16 38 21 WNW 1026,6 44 21 0,0
18.03.2019 14:00:00 12,1 7,4 26 14 36 19 NW 1026,9 19 41 0,0
18.03.2019 13:00:00 11,9 7,2 26 14 34 19 WNW 1027,2 19 40 0,0
18.03.2019 12:00:00 11,4 6,7 22 12 30 16 WNW 1027,4 19 15 0,0
18.03.2019 11:00:00 10,9 6,6 17 9 25 13 NW 1027,5 19 48 0,0
18.03.2019 10:00:00 10,7 5,9 18 10 27 15 NW 1027,1 20 60 0,0
18.03.2019 09:00:00 10,3 6,3 19 10 31 17 NNW 1026,6 19 60 0,0
18.03.2019 08:00:00 8,9 5,8 16 9 29 15 NNW 1025,8 19 26 0,0
18.03.2019 07:00:00 8,5 5,1 19 10 35 19 NW 1025,4 20 0 0,0
18.03.2019 06:00:00 8,7 4,9 24 13 39 21 NW 1024,9 36 0 0,0
18.03.2019 05:00:00 8,8 4,2 26 14 35 19 NW 1024,5 40 0 0,0
18.03.2019 04:00:00 8,4 4,0 22 12 34 18 NW 1024,4 20 0 0,0
18.03.2019 03:00:00 8,2 3,4 20 11 34 18 NNW 1024,3 46 0 0,0
18.03.2019 02:00:00 8,4 3,2 23 13 38 20 NNW 1024,0 57 0 0,0
18.03.2019 01:00:00 8,4 3,8 22 12 37 20 NNW 1024,1 55 0 0,0
18.03.2019 00:00:00 8,9 3,5 28 15 41 22 NNW 1023,7 52 0 0,0
17.03.2019 23:00:00 9,4 4,8 29 15 39 21 NW 1023,4 39 0 0,0
17.03.2019 22:00:00 8,9 5,1 27 14 56 30 NW 1022,9 36 0 0,0
17.03.2019 21:00:00 9,4 3,8 37 20 55 30 NW 1021,9 45 0 0,0
17.03.2019 20:00:00 9,1 4,1 40 21 65 35 NW 1021,3 50 0 0,0
17.03.2019 19:00:00 8,7 4,7 27 15 41 22 W 1020,6 52 40 0,0
17.03.2019 18:00:00 8,4 4,8 35 19 62 33 NW 1020,3 29 21 0,0
17.03.2019 17:00:00 10,4 4,3 39 21 57 31 WNW 1020,2 33 27 0,0
17.03.2019 16:00:00 11,3 4,0 41 22 55 30 WNW 1019,9 36 38 0,0
17.03.2019 15:00:00 10,2 3,0 37 20 50 27 WNW 1019,6 39 19 0,0
17.03.2019 14:00:00 10,6 5,4 36 20 54 29 WNW 1019,3 38 45 0,0
17.03.2019 13:00:00 8,2 5,3 32 17 52 28 NNW 1018,9 17 43 0,2
17.03.2019 12:00:00 10,7 5,9 33 18 61 33 WNW 1018,4 19 50 0,0
17.03.2019 11:00:00 9,4 5,8 30 16 75 41 WNW 1017,8 20 32 0,6
17.03.2019 10:00:00 10,4 4,5 36 20 55 30 WNW 1016,5 14 50 0,0
17.03.2019 09:00:00 10,0 5,8 36 19 54 29 WNW 1015,3 17 22 0,0
17.03.2019 08:00:00 9,2 7,1 27 15 55 30 WNW 1013,8 46 0 0,6
17.03.2019 07:00:00 9,4 6,8 27 15 50 27 WNW 1012,6 60 0 0,2
17.03.2019 06:00:00 9,3 7,7 40 21 55 30 WNW 1011,8 10 0 0,8
17.03.2019 05:00:00 9,6 8,4 36 19 66 36 WNW 1010,9 9 0 0,2
17.03.2019 04:00:00 11,5 9,2 35 19 55 30 WSW 1010,8 15 0 0,0
17.03.2019 03:00:00 11,7 8,2 26 14 42 23 SW 1011,2 19 0 0,0
17.03.2019 02:00:00 11,6 7,9 27 15 46 25 WSW 1011,9 34 0 0,0
17.03.2019 01:00:00 11,2 7,7 26 14 44 24 WSW 1012,5 20 0 0,0
17.03.2019 00:00:00 10,8 7,5 21 12 36 19 WSW 1013,1 33 0 0,0
16.03.2019 23:00:00 11,0 8,0 18 10 37 20 WSW 1013,3 40 0 0,0
16.03.2019 22:00:00 10,7 8,1 19 10 31 17 WSW 1013,6 32 0 0,0
16.03.2019 21:00:00 10,5 8,1 16 8 24 13 WSW 1013,8 34 0 0,0
16.03.2019 20:00:00 10,0 7,9 16 9 29 15 W 1014,0 42 0 0,0
16.03.2019 19:00:00 10,6 7,8 17 9 26 14 WSW 1014,0 40 49 0,0
16.03.2019 18:00:00 11,6 7,7 15 8 29 15 WSW 1014,4 47 60 0,0
16.03.2019 17:00:00 12,0 7,1 19 10 28 15 WSW 1015,4 46 60 0,0
16.03.2019 16:00:00 12,7 7,6 19 11 34 18 SW 1016,2 39 60 0,0
16.03.2019 15:00:00 12,3 7,4 22 12 33 18 SW 1017,5 60 45 0,0
16.03.2019 14:00:00 12,9 7,1 19 10 34 18 SW 1018,8 60 28 0,0
16.03.2019 13:00:00 12,1 6,8 23 13 34 18 SW 1019,8 45 19 0,0
16.03.2019 12:00:00 12,0 6,3 22 12 34 19 SW 1020,3 49 5 0,0
16.03.2019 11:00:00 12,0 7,5 18 10 27 15 SW 1020,6 50 0 0,0
16.03.2019 10:00:00 11,3 7,6 14 8 27 15 SW 1021,0 59 0 0,0
16.03.2019 09:00:00 11,0 6,5 22 12 31 17 WSW 1021,3 60 0 0,0
16.03.2019 08:00:00 10,1 8,7 12 6 24 13 SSW 1021,7 53 0 0,0
16.03.2019 07:00:00 10,2 8,5 16 9 28 15 SW 1021,9 58 0 0,0
16.03.2019 06:00:00 10,4 8,5 15 8 30 16 SW 1022,4 57 0 0,0
16.03.2019 05:00:00 10,6 7,8 14 7 28 15 SW 1022,6 60 0 0,0
16.03.2019 04:00:00 10,5 7,7 19 10 31 17 WSW 1023,2 44 0 0,0
16.03.2019 03:00:00 10,7 7,8 13 7 27 15 WSW 1024,1 60 0 0,0
16.03.2019 02:00:00 10,4 8,8 14 8 30 16 WSW 1024,8 19 0 0,0
16.03.2019 01:00:00 10,9 7,6 19 10 29 15 WSW 1025,3 60 0 0,0
16.03.2019 00:00:00 10,3 8,6 13 7 34 18 W 1025,6 59 0 0,0
15.03.2019 23:00:00 10,6 9,2 11 6 29 15 WSW 1026,0 19 0 0,0
15.03.2019 22:00:00 10,4 9,0 18 10 30 16 W 1025,9 38 0 0,0
15.03.2019 21:00:00 10,5 9,4 16 9 36 20 W 1025,8 49 0 0,0
15.03.2019 20:00:00 11,0 9,4 15 8 34 18 W 1025,6 45 0 0,2
15.03.2019 19:00:00 10,8 9,7 24 13 36 19 W 1025,8 10 0 0,0
15.03.2019 18:00:00 11,7 9,4 23 12 41 22 W 1025,5 20 16 0,0
15.03.2019 17:00:00 11,6 9,7 33 18 47 25 WNW 1025,5 19 3 0,0
15.03.2019 16:00:00 12,7 9,3 31 17 49 26 WNW 1025,6 57 4 0,0
15.03.2019 15:00:00 12,3 9,7 34 19 47 25 WNW 1025,5 44 0 0,0
15.03.2019 14:00:00 11,7 10,1 32 17 46 25 WNW 1026,0 13 0 0,0
15.03.2019 13:00:00 13,1 10,5 28 15 40 22 W 1026,0 60 0 0,0
15.03.2019 12:00:00 12,3 10,2 24 13 38 20 W 1026,1 31 0 0,0
15.03.2019 11:00:00 11,8 10,0 26 14 42 23 W 1026,1 19 0 0,0
15.03.2019 10:00:00 11,7 9,9 29 16 50 27 W 1025,9 37 18 0,0
15.03.2019 09:00:00 11,5 10,1 24 13 43 23 W 1025,6 20 0 0,0
15.03.2019 08:00:00 11,1 10,2 27 14 42 23 W 1025,4 17 0 0,0
15.03.2019 07:00:00 11,0 10,2 30 16 47 26 W 1024,9 13 0 0,0
15.03.2019 06:00:00 11,0 10,4 32 18 48 26 W 1024,6 12 0 0,2
15.03.2019 05:00:00 11,2 10,4 29 16 42 23 W 1024,6 8 0 0,0
15.03.2019 04:00:00 11,1 10,5 24 13 39 21 W 1024,7 10 0 0,0
15.03.2019 03:00:00 11,0 10,1 25 13 43 23 W 1025,2 20 0 0,0
15.03.2019 02:00:00 10,8 10,2 32 18 46 25 W 1025,4 19 0 0,0
15.03.2019 01:00:00 10,9 10,3 31 17 47 26 W 1025,5 12 0 0,2
15.03.2019 00:00:00 11,0 10,4 29 16 48 26 W 1025,5 7 0 0,0
14.03.2019 23:00:00 11,0 10,4 31 17 53 28 W 1025,1 8 0 0,0
14.03.2019 22:00:00 11,0 10,2 30 16 49 27 W 1024,7 14 0 0,0
14.03.2019 21:00:00 11,0 10,1 34 18 49 26 W 1024,6 8 0 0,0
14.03.2019 20:00:00 11,0 9,9 32 17 51 28 W 1024,2 14 0 0,0
14.03.2019 19:00:00 10,9 9,5 34 18 54 29 W 1023,9 13 0 0,0
14.03.2019 18:00:00 11,5 8,9 37 20 59 32 W 1023,7 16 4 0,0
14.03.2019 17:00:00 11,1 9,2 40 22 59 32 W 1023,6 11 0 0,0
14.03.2019 16:00:00 11,7 9,1 33 18 61 33 W 1023,8 12 3 0,0
14.03.2019 15:00:00 11,5 8,5 35 19 59 32 W 1023,9 18 6 0,0
14.03.2019 14:00:00 12,8 9,1 41 22 66 35 W 1024,4 12 34 0,0
14.03.2019 13:00:00 12,1 8,4 36 20 64 34 W 1025,0 9 35 0,0
14.03.2019 12:00:00 11,4 9,0 35 19 61 33 W 1025,4 7 11 0,2
14.03.2019 11:00:00 11,5 7,8 37 20 58 31 W 1025,9 56 9 0,0
14.03.2019 10:00:00 10,6 7,8 29 16 49 26 W 1025,7 36 0 0,0
14.03.2019 09:00:00 9,4 7,3 36 19 56 30 W 1025,7 8 0 0,0
14.03.2019 08:00:00 9,8 7,0 29 15 46 25 W 1025,5 42 0 0,0
14.03.2019 07:00:00 9,3 6,2 26 14 42 23 W 1025,8 50 0 0,0
14.03.2019 06:00:00 9,8 6,7 23 12 35 19 W 1025,9 19 0 0,0
14.03.2019 05:00:00 8,7 4,9 20 11 37 20 W 1026,2 43 0 0,0
14.03.2019 04:00:00 8,9 4,9 26 14 54 29 WNW 1027,2 45 0 0,0
14.03.2019 03:00:00 8,9 6,2 22 12 41 22 W 1027,5 16 0 0,0
14.03.2019 02:00:00 9,7 6,4 31 17 50 27 NW 1027,5 19 0 0,0
14.03.2019 01:00:00 9,2 5,7 29 16 54 29 NW 1027,7 35 0 0,0
14.03.2019 00:00:00 9,8 6,0 32 18 54 29 WNW 1027,4 18 0 0,0
13.03.2019 23:00:00 9,9 6,4 37 20 57 31 NW 1027,2 16 0 0,0
13.03.2019 22:00:00 9,9 6,1 39 21 58 32 NW 1026,9 18 0 0,0
13.03.2019 21:00:00 9,7 6,2 41 22 60 32 WNW 1026,4 20 0 0,0
13.03.2019 20:00:00 9,9 6,2 43 23 63 34 WNW 1025,7 19 0 0,0
13.03.2019 19:00:00 10,0 6,0 45 25 61 33 NW 1025,1 20 35 0,0
13.03.2019 18:00:00 10,4 5,2 44 24 63 34 WNW 1024,5 19 42 0,0
13.03.2019 17:00:00 11,0 5,9 43 23 64 35 WNW 1024,3 20 51 0,0
13.03.2019 16:00:00 11,4 5,7 46 25 63 34 WNW 1024,1 11 50 0,0
13.03.2019 15:00:00 9,1 5,6 39 21 73 39 NW 1024,1 7 41 0,0
13.03.2019 14:00:00 11,3 6,2 38 21 70 38 WNW 1024,2 28 49 0,0
13.03.2019 13:00:00 11,5 6,6 36 19 53 29 WNW 1024,2 18 46 0,0
13.03.2019 12:00:00 10,9 5,6 41 22 56 30 NW 1024,0 24 58 0,0
13.03.2019 11:00:00 10,5 6,1 34 19 59 32 WNW 1023,6 20 47 0,0
13.03.2019 10:00:00 9,7 6,2 32 18 52 28 WNW 1023,3 27 49 0,2
13.03.2019 09:00:00 8,8 5,5 32 17 59 32 WNW 1022,7 60 35 0,4
13.03.2019 08:00:00 7,7 5,8 28 15 56 30 WNW 1022,4 39 0 0,8
13.03.2019 07:00:00 8,2 4,4 27 15 46 25 W 1022,0 44 0 0,0
13.03.2019 06:00:00 8,8 5,5 29 16 47 26 W 1022,0 19 0 0,0

tt = Température de l'air
td = dewpoint
ff = Vitesse du vent
fx = gusts
dd = Direction du vent
ppp = reduced air pressure
vv = visibility
sd = Ensoleillement
rr = Quantités de précipitations

stations d'obs. à proximité